Regional Weather Roundup
Issued by NWS

Home | Current Version | Previous Version | Text Only | Print | Product List | Glossary Off
Versions: 1 2 3 4 5 6 7 8 9 10 11 12 13 14 15 16 17 18 19 20 21 22 23 24 25 26 27 28 29 30 31 32 33 34 35 36 37 38 39 40 41 42 43 44 45 46 47 48 49 50

293
ASUS43 KOAX 260502
RWRNE

WEATHER ROUNDUP FOR NEBRASKA
NATIONAL WEATHER SERVICE OMAHA NE
1200 AM CDT WED JUL 26 2017

NOTES: SATELLITE DATA IS BEING USED TO AUGMENT CLOUD COVER ABOVE
       12000 FEET.
       "FAIR" INDICATES FEW OR NO CLOUDS BELOW 12,000 FEET WITH NO
       SIGNIFICANT WEATHER AND/OR OBSTRUCTIONS TO VISIBILITY.


NEZ001>004-019>022-054>056-260600-
NEBRASKA PANHANDLE

CITY           SKY/WX    TMP DP  RH WIND       PRES   REMARKS
SCOTTSBLUFF    MOCLDY    78  56  46 N16G24    30.06R
ALLIANCE       LGT RAIN  71  65  81 N13       30.04R
CHADRON        CLOUDY    77  56  48 N16       30.06R
GORDON         LGT RAIN  72  65  80 N17G23    30.03S
KIMBALL        CLOUDY    73  57  56 N12       30.12S
SIDNEY         CLOUDY    76  58  53 N14       30.04R
$$

NEZ057>060-069>072-079>082-260600-
SOUTHWEST NEBRASKA

CITY           SKY/WX    TMP DP  RH WIND       PRES   REMARKS
NORTH PLATTE   CLOUDY    80  70  71 S3        29.92S
IMPERIAL       CLOUDY    73  64  73 S8        29.95F
LEXINGTON      CLOUDY    82  68  64 SE8       29.91R
MCCOOK         CLOUDY    84  66  54 W13G23    29.92R THUNDER
OGALLALA       CLOUDY    78  61  56 CALM      29.91F
$$

NEZ005>010-023>029-035>040-094-260600-
NORTH CENTRAL NEBRASKA

CITY           SKY/WX    TMP DP  RH WIND       PRES   REMARKS
VALENTINE      CLOUDY    72  66  81 N16G23    29.95F
AINSWORTH      TSTM      70  66  86 E17       29.94F
BROKEN BOW     CLOUDY    82  67  60 NE10G17   29.93R
O`NEILL        HVY RAIN  68  68 100 N17G25    30.07R
ORD            CLOUDY    84  61  45 VRB7G22   29.91R
THEDFORD       CLOUDY    70  67  89 NW5G25    30.03R
$$

NEZ041-046>049-061>064-073>077-083>087-260600-
SOUTH CENTRAL NEBRASKA

CITY           SKY/WX    TMP DP  RH WIND       PRES   REMARKS
GRAND ISLAND   CLOUDY    82  68  62 S14       29.95R
AURORA         CLOUDY    80  67  64 SE13      29.96R
HASTINGS       CLOUDY    83  66  56 S12G22    29.95R
HEBRON         CLOUDY    85  69  59 S15G22    29.96R
HOLDREGE       CLOUDY    80  64  59 SE12      29.92F
KEARNEY        CLOUDY    81  66  60 SE16      29.92S
YORK           CLOUDY    81  70  69 S10       29.97R
$$

NEZ011>018-030>034-042>045-260600-
NORTHEAST NEBRASKA

CITY           SKY/WX    TMP DP  RH WIND       PRES   REMARKS
NORFOLK        CLOUDY    82  66  58 SE13G22   29.93S
ALBION         CLOUDY    83  68  59 SE7       29.94S
BLAIR          CLOUDY    84  71  64 SE12      29.98F
COLUMBUS       MOCLDY    83  69  62 S14G20    29.95S
FREMONT        CLOUDY    83  68  59 SE10      29.97F
TEKAMAH        CLOUDY    80  72  76 SE9       29.96S
WAYNE          CLOUDY    83  71  66 S15       29.94F
$$

NEZ050>053-065>068-078-088>093-260600-
SOUTHEAST NEBRASKA

CITY           SKY/WX    TMP DP  RH WIND       PRES   REMARKS
LINCOLN        CLOUDY    84  69  60 S14       29.97S
OMAHA EPPLEY   CLOUDY    84  72  67 SE15      29.97F
BEATRICE       CLOUDY    83  70  63 SE9       29.98R
FALLS CITY     PTCLDY    78  72  81 SE7       30.00R
NEBRASKA CITY  PTCLDY    80  74  83 S7        30.00F
PLATTSMOUTH    CLOUDY    80  72  76 SE8       29.99F
$$

NEZ044-045-051>053-067-260600-
OMAHA AREA

CITY           SKY/WX    TMP DP  RH WIND       PRES   REMARKS
OMAHA EPPLEY   CLOUDY    84  72  67 SE15      29.97F
BLAIR          CLOUDY    84  71  64 SE12      29.98F
FREMONT        CLOUDY    83  68  59 SE10      29.97F
MILLARD        CLOUDY    83  74  74 SE8       29.97F HX  91
OFFUTT AFB     CLEAR     81  73  78 SE12      29.97F
PLATTSMOUTH    CLOUDY    80  72  76 SE8       29.99F
WAHOO          FAIR      79  69  70 SE8       29.97S
$$




USA.gov is the U.S. government's official web portal to all federal, state and local government web resources and services.